Regional Weather Roundup
Issued by NWS

Home | Current Version | Previous Version | Graphics & Text | Print | Product List | Glossary On
Versions: 1 2 3 4 5 6 7 8 9 10 11 12 13 14 15 16 17 18 19 20 21 22 23 24 25 26 27 28 29 30 31 32 33 34 35 36 37 38 39 40 41 42 43 44 45 46 47 48 49 50
000
ASUS45 KBOI 271010
RWRID

IDAHO REGIONAL WEATHER ROUNDUP
NATIONAL WEATHER SERVICE BOISE ID
400 AM MDT MON JUL 27 2015

NOTE: "FAIR" INDICATES FEW OR NO CLOUDS BELOW 12000 FEET
WITH NO SIGNIFICANT WEATHER AND/OR OBSTRUCTIONS TO VISIBILITY

IDZ012-014-271100-
SOUTHWEST IDAHO


CITY           SKY/WX    TMP DP  RH WIND       PRES   REMARKS
BOISE          CLOUDY    62  43  49 NW9       29.91S
CALDWELL       CLOUDY    59  39  47 NW10      29.94F
MOUNTAIN HOME  LGT RAIN  61  47  60 NW26G36   29.89R
$$

IDZ016-017-271100-
SOUTHCENTRAL IDAHO


CITY           SKY/WX    TMP DP  RH WIND       PRES   REMARKS
BURLEY         PTCLDY    60  43  53 W23G31    29.86R
JEROME         CLOUDY    62  42  47 SW20G26   29.87S
TWIN FALLS     MOCLDY    62  41  46 SW20G33   29.88R
$$

IDZ019>023-271100-
SOUTHEAST IDAHO


CITY           SKY/WX    TMP DP  RH WIND       PRES   REMARKS
IDAHO FALLS    PTCLDY    57  47  69 SW10      29.84R
POCATELLO      CLEAR     62  43  49 SW20G26   29.86R
REXBURG        PTCLDY    62  44  51 E5        29.82F
$$

IDZ006-010-011-018-031-032-271100-
CENTRAL IDAHO MOUNTAINS


CITY           SKY/WX    TMP DP  RH WIND       PRES   REMARKS
MCCALL         CLOUDY    51  44  77 NE3       29.98R
HAILEY         CLOUDY    59  39  47 N5        29.87F
STANLEY          N/A     52  37  56 N3        29.98F
SALMON         CLOUDY    61  46  59 N9        29.87S
CHALLIS        CLOUDY    63  43  48 N6        29.89R
$$

IDZ002-004-006-007-026-271100-
NORTHERN IDAHO


CITY           SKY/WX    TMP DP  RH WIND       PRES   REMARKS
LEWISTON       MOCLDY    60  39  45 SE7       29.94S
LOWELL           N/A     61  50  67 CALM      29.95S
COEUR D`ALENE  CLOUDY    54  43  66 NE5       29.95S
MULLAN PASS    CLOUDY    44  34  67 NW3       30.02F
$$


USA.gov is the U.S. government's official web portal to all federal, state and local government web resources and services.